Location: Bremen
(53.0793°N, 8.8017°E)
Time: 09:16:44
(UTC+01:00)

Transit 2A - Pass Details

Date: 07 December 2021
Orbit: 591 x 966 km, 66.7° (Epoch: 26 January)

Event Time Altitude Azimuth Distance (km) Brightness Sun altitude
Exits shadow 04:58:41 24° 355° (N) 1,894 7.9 -29.4°
Maximum altitude 04:59:50 25° 11° (N) 1,844 8.0 -29.3°
Drops below altitude 10° 05:05:01 10° 65° (ENE) 2,708 9.6 -28.5°
Sets 05:08:05 0° 79° (E) 3,635 10.7 -28.0°
